Le nostre stazioni meteo in Italia

Pubblicità
Il mio iltempo24.it
Logan Botanic Garden, Gran Bretagna (99193): Temperatura & dewpoint: 21.02.2017 22:00:00 - 27.02.2017 22:00:00 (GMT)Logan Botanic Garden, Gran Bretagna (99193): Temperatura -20cm: 21.02.2017 22:00:00 - 27.02.2017 22:00:00 (GMT)Logan Botanic Garden, Gran Bretagna (99193): direzione del vento: 21.02.2017 22:00:00 - 27.02.2017 22:00:00 (GMT)Logan Botanic Garden, Gran Bretagna (99193): reduced air pressure: 21.02.2017 22:00:00 - 27.02.2017 22:00:00 (GMT)Logan Botanic Garden, Gran Bretagna (99193): visibility: 21.02.2017 22:00:00 - 27.02.2017 22:00:00 (GMT)Logan Botanic Garden, Gran Bretagna (99193): precipitazioni: 21.02.2017 22:00:00 - 27.02.2017 22:00:00 (GMT)
Data & Tempo tt [°C] td [°C] tt -20cm [°C] dd ppp [hPa] vv [km] rr [mm]
27.02.2017 22:00:00 0,7 -0,1 - - - - 0,0
27.02.2017 21:00:00 1,5 0,1 - - - - 0,0
27.02.2017 20:00:00 1,3 -0,1 - - - - 0,0
27.02.2017 19:00:00 3,0 0,8 - - - - 0,0
27.02.2017 18:00:00 2,6 1,5 - - - - 0,0
27.02.2017 17:00:00 2,7 1,1 - - - - 0,0
27.02.2017 16:00:00 4,8 1,9 - - - - 0,0
27.02.2017 15:00:00 5,9 3,1 - - - - 0,0
27.02.2017 14:00:00 6,2 2,1 - - - - 0,0
27.02.2017 13:00:00 4,7 0,3 - - - - 0,2
27.02.2017 12:00:00 28,0 1,4 - SE 1010,6 0,5 0,0
27.02.2017 11:00:00 4,6 1,1 - - - - 0,2
27.02.2017 10:00:00 5,2 1,8 - - - - 0,0
27.02.2017 09:00:00 4,7 1,9 9,4 - - - 0,0
27.02.2017 08:00:00 4,5 1,4 - - - - 0,0
27.02.2017 07:00:00 3,9 0,3 - - - - 0,0
27.02.2017 06:00:00 4,0 0,8 - - - - 0,0
27.02.2017 05:00:00 4,0 0,7 - - - - 0,0
27.02.2017 04:00:00 4,2 1,5 - - - - 0,0
27.02.2017 03:00:00 4,7 1,2 - - - - 0,0
27.02.2017 02:00:00 5,1 1,6 - - - - 0,0
27.02.2017 01:00:00 5,5 2,7 - - - - 0,0
27.02.2017 00:00:00 5,6 1,8 - - - - 0,0
26.02.2017 23:00:00 6,1 1,8 - - - - 0,0
26.02.2017 22:00:00 5,6 1,4 - - - - 0,0
26.02.2017 21:00:00 5,9 2,0 - - - - 0,0
26.02.2017 20:00:00 6,4 3,2 - - - - 0,0
26.02.2017 19:00:00 6,4 4,1 - - - - 0,0
26.02.2017 18:00:00 6,5 3,8 - - - - 0,0
26.02.2017 17:00:00 7,0 3,8 - - - - 0,0
26.02.2017 16:00:00 8,4 5,9 - - - - 0,0
26.02.2017 15:00:00 8,1 6,5 - - - - 0,0
26.02.2017 14:00:00 9,1 7,7 - - - - 0,2
26.02.2017 13:00:00 9,0 8,1 - - - - 0,4
26.02.2017 12:00:00 8,8 7,9 - - - - 0,6
26.02.2017 11:00:00 8,9 7,6 - - - - 0,0
26.02.2017 10:00:00 8,7 7,3 - - - - 0,0
26.02.2017 09:00:00 8,7 6,6 9,7 - - - 0,0
26.02.2017 08:00:00 8,0 6,1 - - - - 0,0
26.02.2017 07:00:00 7,5 5,8 - - - - 0,6
26.02.2017 06:00:00 8,0 5,1 - - - - 0,0
26.02.2017 05:00:00 7,7 5,0 - - - - 0,0
26.02.2017 04:00:00 7,4 5,1 - - - - 0,0
26.02.2017 03:00:00 7,1 4,6 - - - - 0,0
26.02.2017 02:00:00 7,1 3,6 - - - - 0,0
26.02.2017 01:00:00 7,8 3,5 - - - - 0,0
26.02.2017 00:00:00 7,4 6,2 - - - - 0,0
25.02.2017 23:00:00 7,1 5,6 - - - - 0,0
25.02.2017 22:00:00 7,3 6,6 - - - - 0,0
25.02.2017 21:00:00 7,0 6,4 - - - - 0,0
25.02.2017 20:00:00 6,9 6,4 - - - - 0,0
25.02.2017 19:00:00 6,2 5,1 - - - - 0,0
25.02.2017 18:00:00 7,2 5,5 - - - - 0,0
25.02.2017 17:00:00 7,7 5,3 - - - - 0,0
25.02.2017 16:00:00 8,4 7,0 - - - - 0,0
25.02.2017 15:00:00 8,9 8,0 - - - - 0,4
25.02.2017 14:00:00 8,7 7,9 - - - - 1,2
25.02.2017 13:00:00 9,4 8,4 - - - - 0,0
25.02.2017 12:00:00 9,4 8,2 - - - - 0,0
25.02.2017 11:00:00 9,4 8,0 - - - - 0,0
25.02.2017 10:00:00 9,1 7,7 - - - - 0,0
25.02.2017 09:00:00 8,6 7,5 10,2 - - - 0,0
25.02.2017 08:00:00 8,4 7,4 - - - - 0,0
25.02.2017 07:00:00 8,3 7,0 - - - - 0,0
25.02.2017 06:00:00 8,1 7,0 - - - - 1,2
25.02.2017 05:00:00 8,2 6,9 - - - - 0,0
25.02.2017 04:00:00 8,5 6,4 - - - - 0,0
25.02.2017 03:00:00 8,4 6,5 - - - - 0,0
25.02.2017 02:00:00 8,3 6,5 - - - - 0,0
25.02.2017 01:00:00 7,9 6,7 - - - - 0,6
25.02.2017 00:00:00 8,1 6,9 - - - - 0,2
24.02.2017 23:00:00 7,9 6,9 - - - - 0,2
24.02.2017 22:00:00 8,0 6,5 - - - - 0,2
24.02.2017 21:00:00 7,9 6,2 - - - - 0,2
24.02.2017 20:00:00 7,6 5,7 - - - - 0,0
24.02.2017 19:00:00 6,5 5,0 - - - - 0,4
24.02.2017 18:00:00 6,3 4,2 - - - - 0,4
24.02.2017 17:00:00 6,4 4,5 - - - - 0,6
24.02.2017 16:00:00 6,2 2,9 - - - - 0,0
24.02.2017 15:00:00 6,5 2,2 - - - - 0,0
24.02.2017 14:00:00 7,0 3,0 - - - - 0,0
24.02.2017 13:00:00 7,0 3,4 - - - - 0,0
24.02.2017 12:00:00 6,4 2,7 - - - - 0,0
24.02.2017 11:00:00 6,8 3,1 - - - - 0,0
24.02.2017 10:00:00 5,5 2,5 - - - - 0,2
24.02.2017 09:00:00 5,2 2,4 10,0 - - - 0,0
24.02.2017 08:00:00 4,5 2,3 - - - - 0,0
24.02.2017 07:00:00 4,4 2,2 - - - - 0,4
24.02.2017 06:00:00 4,1 1,2 - - - - 0,0
24.02.2017 05:00:00 4,1 1,7 - - - - 0,6
24.02.2017 04:00:00 3,3 1,6 - - - - 1,6
24.02.2017 03:00:00 3,7 1,8 - - - - 0,4
24.02.2017 02:00:00 4,3 1,7 - - - - 0,0
24.02.2017 01:00:00 3,6 2,3 - - - - 0,4
24.02.2017 00:00:00 4,1 1,1 - - - - 0,0
23.02.2017 23:00:00 5,1 2,1 - - - - 0,2
23.02.2017 22:00:00 4,9 2,1 - - - - 0,4
23.02.2017 21:00:00 4,9 2,8 - - - - 0,2
23.02.2017 20:00:00 5,0 3,1 - - - - 2,0
23.02.2017 19:00:00 4,9 2,9 - - - - 0,2
23.02.2017 18:00:00 4,7 3,1 - - - - 0,4
23.02.2017 17:00:00 3,8 2,4 - - - - 1,8
23.02.2017 16:00:00 4,6 2,7 - - - - 0,6
23.02.2017 15:00:00 7,1 3,0 - - - - 0,0
23.02.2017 14:00:00 6,1 2,0 - - - - 0,0
23.02.2017 13:00:00 5,7 2,3 - - - - 0,0
23.02.2017 12:00:00 4,9 2,5 - - - - 0,0
23.02.2017 11:00:00 4,2 3,0 - - - - 0,4
23.02.2017 10:00:00 3,8 2,8 - - - - 0,4
23.02.2017 09:00:00 6,7 5,9 12,0 - - - 0,2
23.02.2017 08:00:00 6,4 5,2 - - - - 0,0
23.02.2017 07:00:00 7,0 4,2 - - - - 0,0
23.02.2017 06:00:00 8,3 5,0 - - - - 0,0
23.02.2017 05:00:00 8,9 8,2 - - - - 0,2
23.02.2017 04:00:00 9,1 8,4 - - - - 0,6
23.02.2017 03:00:00 9,6 8,9 - - - - 0,0
23.02.2017 02:00:00 6,1 5,9 - - - - 1,0
23.02.2017 01:00:00 5,8 5,5 - - - - 0,8
23.02.2017 00:00:00 6,1 5,5 - - - - 1,6
22.02.2017 23:00:00 6,3 5,6 - - - - 1,2
22.02.2017 22:00:00 6,6 5,5 - - - - 0,0
22.02.2017 21:00:00 7,0 5,4 - - - - 0,2
22.02.2017 20:00:00 6,9 4,6 - - - - 0,0
22.02.2017 19:00:00 7,2 4,3 - - - - 0,0
22.02.2017 18:00:00 7,1 4,6 - - - - 0,0
22.02.2017 17:00:00 7,0 4,8 - - - - 0,0
22.02.2017 16:00:00 7,9 4,3 - - - - 0,0
22.02.2017 15:00:00 8,1 4,9 - - - - 0,0
22.02.2017 14:00:00 8,3 4,7 - - - - 0,0
22.02.2017 13:00:00 8,1 4,4 - - - - 0,0
22.02.2017 12:00:00 7,9 4,0 - - - - 0,0
22.02.2017 11:00:00 7,4 3,4 - - - - 0,0
22.02.2017 10:00:00 7,2 3,5 - - - - 0,0
22.02.2017 09:00:00 6,9 3,6 12,0 - - - 0,0
22.02.2017 08:00:00 6,8 3,0 - - - - 0,0
22.02.2017 07:00:00 6,7 2,8 - - - - 0,0
22.02.2017 06:00:00 6,7 3,2 - - - - 0,0
22.02.2017 05:00:00 7,5 4,0 - - - - 0,0
22.02.2017 04:00:00 7,5 4,4 - - - - 0,0
22.02.2017 03:00:00 7,3 4,1 - - - - 0,0
22.02.2017 02:00:00 8,0 4,5 - - - - 0,0
22.02.2017 01:00:00 8,1 5,4 - - - - 0,2
22.02.2017 00:00:00 7,9 6,7 - - - - 0,6
21.02.2017 23:00:00 9,9 8,2 - - - - 0,0
21.02.2017 22:00:00 10,4 8,1 - - - - 0,0

tt = Temperatura
td = dewpoint
tt -20cm = Temperatura -20cm
dd = direzione del vento
ppp = reduced air pressure
vv = visibility
rr = precipitazioni

Stazioni seguenti

WeatherPro
AMSI
MeteoEarth